Weather History for Taloyoak, NU

Change the Weather History Date:

Wednesday, January 23, 2013

  Actual Average Record
Temperature  
Mean Temperature -20 °F -  
Max Temperature -7 °F -20 °F -4 °F (2002)
Min Temperature -33 °F -32 °F -49 °F (2011)
Degree Days  
Heating Degree Days 85    
Moisture  
Dew Point -19 °F    
Average Humidity 77    
Maximum Humidity 84    
Minimum Humidity 61    
Precipitation  
Precipitation 0.00 in - - ()
Sea Level Pressure  
Sea Level Pressure 30.16 in    
Wind  
Wind Speed 16 mph ()    
Max Wind Speed 25 mph    
Max Gust Speed 29 mph    
Visibility 13.4 miles    
Events Snow    
Averages and records for this station are not official NWS values.
T = Trace of Precipitation, MM = Missing Value Source: Averaged Metar Reports

Daily Weather History Graph

Daily Weather History Graph

Search for Another Location

Airport:

Trip Planner

Search our weather history database for the weather conditions in past years. The results will help you decide how hot, cold, wet, or windy it might be!

Date:

Astronomy

Jan. 23, 2013 Rise Set
Actual Time 10:39 AM CST 2:13 PM CST
Civil Twilight 9:00 AM CST 3:53 PM CST
Nautical Twilight 7:38 AM CST 5:15 PM CST
Astronomical Twilight 6:26 AM CST 6:26 PM CST
Moon No Moon Rise No Moon Set
Length of Visible Light 6h 53m
Length of Day
3h 33m
Waxing Gibbous, 89% of the Moon is Illuminated
Jan 23
Waxing Gibbous
Jan 26
Full
Feb 3
Last Quarter
Feb 10
New
Feb 17
First Quarter

Hourly Weather History & Observations

Time (CST) Temp. Windchill Dew Point Humidity Pressure Visibility Wind Dir Wind Speed Gust Speed Precip Events Conditions
12:00 AM -21 °F - -27 °F 61% 30.20 in 15 mi WNW 6.9 mph - - Snow Snow
12:00 AM -22.0 °F -37.7 °F -27.4 °F 76% 30.20 in 15.0 mi WNW 5.8 mph - N/A   Mostly Cloudy
1:00 AM -22.0 °F -47.5 °F -27.4 °F 76% 30.19 in 15.0 mi NW 15.0 mph - N/A   Mostly Cloudy
2:00 AM -11.2 °F -35.2 °F -14.8 °F 84% 30.19 in 15.0 mi NW 17.3 mph - N/A   Mostly Cloudy
3:00 AM -9.4 °F -32.1 °F -13.0 °F 84% 30.19 in 15.0 mi NW 16.1 mph 21.9 mph N/A Snow Low Drifting Snow
4:00 AM -9.4 °F -34.7 °F -13.0 °F 84% 30.18 in 15.0 mi NW 20.7 mph - N/A Snow Low Drifting Snow
5:00 AM -9.4 °F -35.2 °F -13.0 °F 84% 30.18 in 15.0 mi NW 21.9 mph - N/A Snow Low Drifting Snow
6:00 AM -9 °F - -14 °F 70% 30.18 in 15 mi NW 19.6 mph - - Snow Snow
6:00 AM -9.4 °F -33.5 °F -13.0 °F 84% 30.18 in 15.0 mi NW 18.4 mph - N/A Snow Low Drifting Snow
7:00 AM -9.4 °F -35.2 °F -13.0 °F 84% 30.17 in 15.0 mi NW 21.9 mph - N/A Snow Low Drifting Snow
8:00 AM -7.6 °F -32.3 °F -13.0 °F 77% 30.17 in 15.0 mi NW 20.7 mph - N/A Snow Low Drifting Snow
9:00 AM -9.4 °F -34.7 °F -13.0 °F 84% 30.16 in 15.0 mi NW 20.7 mph - N/A Snow Low Drifting Snow
10:00 AM -9.4 °F -36.3 °F -13.0 °F 84% 30.15 in 15.0 mi NW 24.2 mph - N/A Snow Low Drifting Snow
11:00 AM -9.4 °F -36.8 °F -13.0 °F 84% 30.15 in 15.0 mi NW 25.3 mph - N/A Snow Low Drifting Snow
12:00 PM -13 °F - -18 °F 69% 30.14 in 9 mi NW 24.2 mph - - Snow Snow
12:00 PM -13.0 °F -41.1 °F -18.4 °F 77% 30.14 in 9.0 mi NW 24.2 mph - N/A Snow Low Drifting Snow
1:00 PM -13.0 °F -40.6 °F -16.6 °F 84% 30.14 in 12.0 mi NW 23.0 mph - N/A Snow Low Drifting Snow
2:00 PM -13.0 °F -40.6 °F -16.6 °F 84% 30.15 in 15.0 mi NW 23.0 mph - N/A Snow Low Drifting Snow
3:00 PM -13.0 °F -41.1 °F -18.4 °F 77% 30.16 in 14.0 mi WNW 24.2 mph - N/A Snow Low Drifting Snow
4:00 PM -14.8 °F -42.9 °F -18.4 °F 84% 30.17 in 10.0 mi NW 23.0 mph - N/A Snow Low Drifting Snow
5:00 PM -14.8 °F -42.9 °F -20.2 °F 77% 30.17 in 10.0 mi NW 23.0 mph - N/A Snow Low Drifting Snow
6:00 PM -17 °F - -23 °F 63% 30.16 in 9 mi NW 23.0 mph - - Snow Snow
6:00 PM -16.6 °F -45.9 °F -22.0 °F 76% 30.16 in 9.0 mi NW 24.2 mph - N/A Snow Low Drifting Snow
7:00 PM -16.6 °F -43.5 °F -22.0 °F 76% 30.15 in 10.0 mi NW 19.6 mph - N/A Snow Low Drifting Snow
8:00 PM -16.6 °F -44.1 °F -23.8 °F 70% 30.15 in 15.0 mi NW 20.7 mph - N/A Snow Low Drifting Snow
9:00 PM -18.4 °F -47.1 °F -23.8 °F 76% 30.15 in 14.0 mi NW 21.9 mph - N/A Snow Low Drifting Snow
10:00 PM -20.2 °F -50.1 °F -27.4 °F 69% 30.14 in 14.0 mi NW 23.0 mph 28.8 mph N/A Snow Low Drifting Snow
11:00 PM -22.0 °F -52.5 °F -29.2 °F 69% 30.15 in 14.0 mi NW 23.0 mph - N/A Snow Low Drifting Snow